Location: Newark
(49.2191°N, 12.6671°E)
Time: 09:39:19
(UTC+00:00)

Vanguard 1 - Visible Passes

Search period start: 20 January 2020 00:00
Search period end: 30 January 2020 00:00
Orbit: 651 x 3832 km, 34.2° (Epoch: 20 January)

Date Brightness Start Highest point End Pass type
(mag) Time Alt. Az. Time Alt. Az. Time Alt. Az.
20 Jan 11.6 18:11:58 10° SSW 18:15:45 20° SSE 18:16:46 19° SSE visible
21 Jan 11.5 18:32:23 10° SW 18:36:21 21° S 18:36:36 21° SSE visible
22 Jan 11.8 16:36:43 10° S 16:38:04 11° SSE 16:39:30 10° SE visible
22 Jan 11.6 18:52:57 10° SW 18:56:27 21° S 18:56:27 21° S visible
23 Jan 11.7 16:56:15 10° SSW 16:58:35 14° SSE 17:01:13 10° SE visible
23 Jan 11.8 19:13:41 10° SW 19:16:18 18° SSW 19:16:18 18° SSW visible
24 Jan 11.6 17:16:24 10° SSW 17:19:09 15° SSE 17:22:21 10° SE visible
24 Jan 12.1 19:34:36 10° SW 19:36:11 15° SSW 19:36:11 15° SSW visible
25 Jan 11.6 17:36:50 10° SSW 17:39:45 16° S 17:43:13 10° SE visible
25 Jan 12.4 19:55:48 10° SW 19:56:04 11° SW 19:56:04 11° SW visible
26 Jan 11.6 17:57:29 10° SW 18:00:24 16° S 18:03:15 11° SSE visible
27 Jan 11.8 18:18:22 10° SW 18:21:03 15° S 18:23:12 12° SSE visible
28 Jan 11.9 18:39:36 10° SSW 18:41:44 12° S 18:43:11 11° S visible
29 Jan 11.7 16:41:00 10° SSW 16:43:13 13° S 16:45:31 10° SSE visible
